Regional Weather Roundup
Issued by NWS

Home | Current Version | Previous Version | Graphics & Text | Print | Product List | Glossary On
Versions: 1 2 3 4 5 6 7 8 9 10 11 12 13 14 15 16 17 18 19 20 21 22 23 24 25 26 27 28 29 30 31 32 33 34 35 36 37 38 39 40 41 42 43 44 45 46 47 48 49 50
327
ASUS45 KCYS 291910
RWRWY

WYOMING REGIONAL WEATHER ROUNDUP
NATIONAL WEATHER SERVICE CHEYENNE WY
100 PM MDT SAT APR 29 2017

NOTE:  "FAIR" INDICATES FEW OR NO CLOUDS BELOW 12,000 FEET
WITH NO SIGNIFICANT WEATHER AND/OR OBSTRUCTIONS TO VISIBILITY.

WYZ001-292000-
YELLOWSTONE NATIONAL PARK

CITY           SKY/WX    TMP DP  RH WIND       PRES   REMARKS
LK YELLOWSTONE   N/A     34  15  46 VRB5      30.22S WCI  30
W YELLOWSTONE  NOT AVBL

$$
WYZ002>013-054>058-071-098>099-292000-
NORTHERN WYOMING

CITY           SKY/WX    TMP DP  RH WIND       PRES   REMARKS
JACKSON        MOSUNNY   43  18  36 NW7       30.19F
CODY           PTSUNNY   44  29  55 S9        30.24F
GREYBULL       FAIR      49  27  42 VRB3      30.23F
WORLAND        CLOUDY    45  30  55 SW9G17    30.25F
SHERIDAN       FAIR      42  29  59 SE13      30.26F
BUFFALO        FAIR      37  26  64 S12       30.27F WCI  29
GILLETTE       FAIR      37  29  72 SW8       30.28F WCI  31
HULETT         FAIR      46  18  31 W8        30.26F
NEWCASTLE      FAIR      45  16  31 SW3       30.28F

$$
WYZ014>020-022>026-101>103-292000-
CENTRAL WYOMING

CITY           SKY/WX    TMP DP  RH WIND       PRES   REMARKS
BIG PINEY      PTSUNNY   38  18  44 MISG      30.22S
PINEDALE       CLOUDY    37  16  41 E5        30.21S WCI  34
DUBOIS         FAIR      36  21  55 SE9G17    30.20F WCI  29
LANDER         FAIR      34  24  67 S8        30.26F WCI  27
RIVERTON       FAIR      35  25  66 S3        30.27F
CASPER         PTSUNNY   41  16  36 E10       30.25F
DOUGLAS        FAIR      37  20  50 SW3       30.28F

$$
WYZ021-027>030-104>119-292000-
SOUTHERN WYOMING

CITY           SKY/WX    TMP DP  RH WIND       PRES   REMARKS
EVANSTON       CLOUDY    34  21  59 E12G24    30.23R WCI  25
KEMMERER         N/A     34  25  69 E8G17     30.23S WCI  27
FORT BRIDGER   CLOUDY    36  27  69 SE10G16   30.25F WCI  28
ROCK SPRINGS   PTSUNNY   37  18  46 NE15G24   30.21F WCI  28
DIXON            N/A     41  19  41 NE13G24   30.15S
RAWLINS        PTSUNNY   34  21  59 NE10      30.21S WCI  26
SARATOGA       CLOUDY    36  18  48 S6        30.16F WCI  31
LARAMIE        CLOUDY    26  17  68 NE12      30.18S WCI  16
CHEYENNE       CLOUDY    31  18  58 N16G22    30.19F WCI  20
TORRINGTON     FAIR      42  19  39 N12       30.24F
PINE BLUFFS    MOCLDY    36  23  60 N15G23    30.19F WCI  26

$$




USA.gov is the U.S. government's official web portal to all federal, state and local government web resources and services.